GW1699 Weather Reports


Display with metric or nautical units.
time (UTC)temp
F
wind
direction
speed
MPH
gust
MPH
rain 1hr
in
rain 24hr
in
rain mn
in
humidity
%
barometer
mb
20260504000654 52 190 0.0 0.0 0.00 0.00 0.00 67 1013.2
20260504000042 52 197 0.0 0.0 0.00 0.00 0.00 66 1013.5
20260503235412 52 192 0.0 0.0 0.00 0.00 0.00 64 1013.5
20260503234815 52 194 0.0 0.0 0.00 0.00 0.00 60 1013.5
20260503234236 53 192 0.0 0.0 0.00 0.00 0.00 60 1013.5
20260503233627 53 191 0.0 1.0 0.00 0.00 0.00 59 1013.5
20260503233035 54 185 1.0 1.0 0.00 0.00 0.00 50 1013.5
20260503232447 55 197 0.0 0.0 0.00 0.00 0.00 58 1013.5
20260503231818 55 189 0.0 1.0 0.00 0.00 0.00 53 1013.8
20260503231252 56 195 1.0 1.0 0.00 0.00 0.00 48 1013.5
20260503230636 58 180 1.0 1.0 0.00 0.00 0.00 45 1013.5
20260503230041 58 147 0.0 1.0 0.00 0.00 0.00 45 1013.5
20260503224223 58 202 0.0 0.0 0.00 0.00 0.00 44 1013.8
20260503223614 58 183 1.0 1.0 0.00 0.00 0.00 48 1013.5
20260503223014 58 183 1.0 1.0 0.00 0.00 0.00 46 1013.8
20260503222422 60 203 0.0 0.0 0.00 0.00 0.00 36 1013.5
20260503221820 60 163 2.0 2.0 0.00 0.00 0.00 35 1013.8
20260503221224 60 188 1.0 1.0 0.00 0.00 0.00 33 1013.8
20260503220654 60 247 1.0 1.0 0.00 0.00 0.00 33 1013.8
20260503220044 60 274 1.0 1.0 0.00 0.00 0.00 36 1013.8
20260503215439 60 212 1.0 2.0 0.00 0.00 0.00 32 1013.8
20260503214810 60 91 1.0 1.0 0.00 0.00 0.00 37 1013.8
20260503214224 60 250 2.0 2.0 0.00 0.00 0.00 38 1013.5
20260503213647 59 214 1.0 1.0 0.00 0.00 0.00 32 1013.8
20260503212440 60 42 1.0 1.0 0.00 0.00 0.00 38 1013.5
20260503211827 59 227 2.0 3.0 0.00 0.00 0.00 42 1013.8
20260503211227 59 167 0.0 1.0 0.00 0.00 0.00 35 1013.5
20260503210647 59 259 2.0 3.0 0.00 0.00 0.00 34 1013.8
20260503210017 59 87 0.0 1.0 0.00 0.00 0.00 35 1014.2
20260503205430 59 157 1.0 1.0 0.00 0.00 0.00 34 1013.8
20260503204242 59 224 0.0 0.0 0.00 0.00 0.00 33 1013.8
20260503203038 59 254 1.0 2.0 0.00 0.00 0.00 33 1014.2
20260503202422 59 176 0.0 1.0 0.00 0.00 0.00 34 1014.2
20260503201816 58 61 0.0 1.0 0.00 0.00 0.00 35 1014.5
20260503201234 58 240 1.0 3.0 0.00 0.00 0.00 37 1014.5
20260503200625 58 208 2.0 3.0 0.00 0.00 0.00 33 1014.5
20260503200026 58 240 3.0 3.0 0.00 0.00 0.00 34 1014.9
20260503195409 59 172 2.0 2.0 0.00 0.00 0.00 34 1014.9
20260503194821 58 85 2.0 4.0 0.00 0.00 0.00 37 1015.2
20260503194241 57 191 1.0 1.0 0.00 0.00 0.00 33 1015.5
20260503193621 58 184 3.0 3.0 0.00 0.00 0.00 34 1015.2
20260503193043 59 195 0.0 0.0 0.00 0.00 0.00 35 1015.5
20260503192436 58 239 2.0 4.0 0.00 0.00 0.00 35 1015.5
20260503191842 57 251 3.0 4.0 0.00 0.00 0.00 36 1015.5
20260503191249 58 193 0.0 1.0 0.00 0.00 0.00 41 1015.5
20260503190636 58 284 2.0 2.0 0.00 0.00 0.00 36 1015.5
20260503190052 56 17 2.0 2.0 0.00 0.00 0.00 41 1015.5
20260503185423 58 285 2.0 2.0 0.00 0.00 0.00 38 1015.9
20260503184846 56 153 2.0 3.0 0.00 0.00 0.00 36 1015.5
20260503184216 56 159 2.0 4.0 0.00 0.00 0.00 34 1015.9
20260503183031 56 198 1.0 1.0 0.00 0.00 0.00 35 1016.2
20260503182446 56 299 2.0 4.0 0.00 0.00 0.00 37 1016.2
20260503181853 55 205 1.0 1.0 0.00 0.00 0.00 37 1015.9
20260503181236 54 169 0.0 1.0 0.00 0.00 0.00 39 1016.2
20260503180651 55 189 1.0 2.0 0.00 0.00 0.00 35 1016.2
20260503180026 54 189 0.0 0.0 0.00 0.00 0.00 38 1016.2
20260503175417 56 177 3.0 4.0 0.00 0.00 0.00 37 1016.5
20260503174820 56 336 2.0 2.0 0.00 0.00 0.00 43 1016.5
20260503174213 54 159 2.0 2.0 0.00 0.00 0.00 36 1016.5
20260503173628 56 96 5.0 6.0 0.00 0.00 0.00 37 1016.5
20260503173035 54 206 0.0 1.0 0.00 0.00 0.00 38 1016.5
20260503172413 53 111 2.0 2.0 0.00 0.00 0.00 37 1016.5
20260503171814 53 221 1.0 2.0 0.00 0.00 0.00 38 1016.9
20260503171254 53 165 2.0 3.0 0.00 0.00 0.00 42 1016.9
20260503150630 48 51 1.0 2.0 0.00 0.00 0.00 53 1018.2
20260503130620 42 195 0.0 1.0 0.00 0.00 0.00 79 1018.2
20260503110645 29 198 0.0 0.0 0.00 0.00 0.00 99 1017.2
20260503081246 30 200 0.0 0.0 0.00 0.00 0.00 99 1016.2
20260503072411 31 201 0.0 0.0 0.00 0.00 0.00 99 1015.5
20260503071838 31 201 0.0 0.0 0.00 0.00 0.00 99 1015.9
20260503071227 31 201 0.0 0.0 0.00 0.00 0.00 99 1015.5
20260503070623 31 200 0.0 0.0 0.00 0.00 0.00 99 1015.5
20260503054237 33 199 0.0 0.0 0.00 0.00 0.00 97 1015.9
20260503053623 33 198 0.0 0.0 0.00 0.00 0.00 97 1015.5
20260503053051 33 200 0.0 0.0 0.00 0.00 0.00 97 1015.5
20260503052424 33 201 0.0 0.0 0.00 0.00 0.00 97 1015.5
20260503051854 33 200 0.0 0.0 0.00 0.00 0.00 96 1015.5
20260503051244 34 201 0.0 0.0 0.00 0.00 0.00 96 1015.5
20260503050649 34 201 0.0 0.0 0.00 0.00 0.00 96 1015.5
20260503050053 34 201 0.0 0.0 0.00 0.00 0.00 95 1015.5
20260503045418 34 201 0.0 0.0 0.00 0.00 0.00 95 1015.5
20260503044845 34 201 0.0 0.0 0.00 0.00 0.00 94 1015.5
20260503044242 34 201 0.0 0.0 0.00 0.00 0.00 94 1015.5
20260503043639 35 201 0.0 0.0 0.00 0.00 0.00 94 1015.5
20260503043016 35 203 0.0 0.0 0.00 0.00 0.00 94 1015.5
20260503042443 35 202 0.0 0.0 0.00 0.00 0.00 93 1015.5
20260503041823 35 200 0.0 0.0 0.00 0.00 0.00 92 1015.5
20260503040623 36 200 0.0 0.0 0.00 0.00 0.00 90 1015.5
20260503040047 36 204 0.0 0.0 0.00 0.00 0.00 90 1015.2
20260503035451 36 210 0.0 0.0 0.00 0.00 0.00 90 1015.5
20260503034851 37 205 0.0 0.0 0.00 0.00 0.00 89 1015.2
20260503034216 37 201 0.0 0.0 0.00 0.00 0.00 89 1015.5
20260503033638 37 201 0.0 0.0 0.00 0.00 0.00 88 1015.5
20260503032419 38 201 0.0 0.0 0.00 0.00 0.00 86 1015.2
20260503031839 38 201 0.0 0.0 0.00 0.00 0.00 85 1015.5
20260503031244 39 201 0.0 0.0 0.00 0.00 0.00 84 1015.5
20260503030642 39 207 0.0 0.0 0.00 0.00 0.00 83 1015.5
20260503030024 40 204 0.0 0.0 0.00 0.00 0.00 82 1015.5
20260503025424 40 213 0.0 0.0 0.00 0.00 0.00 82 1015.5
20260503024829 40 205 0.0 0.0 0.00 0.00 0.00 80 1015.5
20260503024233 41 205 0.0 0.0 0.00 0.00 0.00 79 1015.5
20260503023618 41 205 0.0 0.0 0.00 0.00 0.00 77 1015.2
20260503023036 42 219 0.0 0.0 0.00 0.00 0.00 77 1015.2
20260503022452 42 201 0.0 0.0 0.00 0.00 0.00 76 1015.2
20260503021852 42 198 0.0 0.0 0.00 0.00 0.00 73 1015.2
20260503021241 42 219 0.0 0.0 0.00 0.00 0.00 74 1015.2
20260503020644 43 200 0.0 0.0 0.00 0.00 0.00 75 1015.2
20260503020048 43 197 0.0 0.0 0.00 0.00 0.00 75 1015.2
20260503014817 43 200 0.0 0.0 0.00 0.00 0.00 68 1014.9
20260503014252 44 166 0.0 0.0 0.00 0.00 0.00 67 1014.9
20260503013627 44 226 2.0 2.0 0.00 0.00 0.00 71 1014.9
20260503013014 44 195 0.0 0.0 0.00 0.00 0.00 68 1014.9
20260503011811 44 183 0.0 0.0 0.00 0.00 0.00 65 1014.5
20260503011231 45 191 0.0 0.0 0.00 0.00 0.00 71 1014.5
20260503010623 45 189 0.0 0.0 0.00 0.00 0.00 62 1014.5
20260503010028 45 175 0.0 0.0 0.00 0.00 0.00 66 1014.5
20260503005413 45 178 1.0 2.0 0.00 0.00 0.00 62 1014.5
20260503004843 45 218 0.0 0.0 0.00 0.00 0.00 71 1014.2
20260503004211 45 222 1.0 1.0 0.00 0.00 0.00 72 1013.8
20260503003641 46 221 0.0 0.0 0.00 0.00 0.00 64 1013.8
20260503003018 47 215 0.0 0.0 0.00 0.00 0.00 62 1013.8
20260503001815 48 160 1.0 2.0 0.00 0.00 0.00 55 1013.8
20260503001232 48 173 0.0 0.0 0.00 0.00 0.00 55 1013.8